Meacham, OR

11:29 AM PST on February 25, 2017 (GMT -0800)
Meacham

Weather History for KMEH - February, 2013

Change the Weather History Date:

Thursday, February 28, 2013

  Actual Average Record
Temperature  
Mean Temperature 35 °F -  
Max Temperature 37 °F 37 °F 50 °F (2008)
Min Temperature 33 °F 17 °F 1 °F (2001)
Degree Days  
Heating Degree Days 30    
Moisture  
Dew Point 33 °F    
Average Humidity 91    
Maximum Humidity 100    
Minimum Humidity 72    
Precipitation  
Precipitation 0.42 in - - ()
Sea Level Pressure  
Sea Level Pressure 30.31 in    
Wind  
Wind Speed 0 mph (North)    
Max Wind Speed 0 mph    
Max Gust Speed -    
Visibility 5 miles    
Events Rain , Snow    
Averages and records for this station are not official NWS values.
T = Trace of Precipitation, MM = Missing Value Source: NWS Daily Summary

Daily Weather History Graph

Daily Weather History Graph

Search for Another Location

Airport or City:

Trip Planner

Search our weather history database for the weather conditions in past years. The results will help you decide how hot, cold, wet, or windy it might be!

Date:

Astronomy

Feb. 28, 2013 Rise Set
Actual Time 6:33 AM PST 5:39 PM PST
Civil Twilight 6:03 AM PST 6:09 PM PST
Nautical Twilight 5:29 AM PST 6:43 PM PST
Astronomical Twilight 4:54 AM PST 7:18 PM PST
Moon 9:25 PM PST (2/28) 7:33 AM PST (2/28)
Length of Visible Light 12h 06m
Length of Day
11h 06m
Waning Gibbous, 90% of the Moon is Illuminated
Feb 28
Waning Gibbous
Mar 4
Last Quarter
Mar 11
New
Mar 19
First Quarter
Mar 27
Full

Hourly Weather History & Observations

Time (PST) Temp. Dew Point Humidity Pressure Visibility Wind Dir Wind Speed Gust Speed Precip Events Conditions
12:56 AM 33.1 °F 28.0 °F 82% 30.28 in 10.0 mi Calm Calm - 0.00 in   Overcast
1:56 AM 33.1 °F 28.0 °F 82% 30.27 in 10.0 mi Calm Calm - N/A   Overcast
2:56 AM 35.1 °F 27.0 °F 72% 30.26 in 10.0 mi Calm Calm - N/A   Overcast
3:56 AM 34.0 °F 28.0 °F 79% 30.27 in 10.0 mi Calm Calm - N/A   Overcast
4:56 AM 34.0 °F 30.0 °F 85% 30.27 in 4.0 mi Calm Calm - 0.00 in Snow Light Snow
5:08 AM 33.8 °F 30.2 °F 87% 30.22 in 2.5 mi Calm Calm - 0.01 in Snow Light Snow
5:16 AM 33.8 °F 30.2 °F 87% 30.22 in 2.0 mi Calm Calm - 0.01 in Snow Light Snow
5:23 AM 33.8 °F 30.2 °F 87% 30.23 in 1.5 mi Calm Calm - 0.01 in Snow Light Snow
5:41 AM 33.8 °F 30.2 °F 87% 30.23 in 2.0 mi Calm Calm - 0.02 in Snow Light Snow
5:56 AM 33.1 °F 30.0 °F 89% 30.30 in 1.5 mi Calm Calm - 0.03 in Snow Light Snow
6:12 AM 33.8 °F 30.2 °F 87% 30.23 in 3.0 mi Calm Calm - 0.00 in Snow Light Snow
6:56 AM 33.1 °F 30.9 °F 92% 30.30 in 10.0 mi Calm Calm - 0.00 in   Overcast
7:29 AM 33.8 °F 30.2 °F 87% 30.25 in 2.0 mi Calm Calm - 0.01 in Snow Light Snow
7:36 AM 33.8 °F 32.0 °F 93% 30.25 in 1.5 mi Calm Calm - 0.01 in Snow Light Snow
7:51 AM 33.8 °F 32.0 °F 93% 30.25 in 2.0 mi Calm Calm - 0.01 in Snow Light Snow
7:56 AM 34.0 °F 32.0 °F 92% 30.32 in 2.5 mi Calm Calm - 0.01 in Snow Light Snow
8:08 AM 33.8 °F 32.0 °F 93% 30.25 in 1.8 mi Calm Calm - 0.01 in Snow Light Snow
8:38 AM 33.8 °F 32.0 °F 93% 30.26 in 1.8 mi Calm Calm - 0.03 in Snow Light Snow
8:46 AM 33.8 °F 32.0 °F 93% 30.26 in 2.0 mi Calm Calm - 0.03 in Snow Light Snow
8:56 AM 34.0 °F 32.0 °F 92% 30.33 in 2.5 mi Calm Calm - 0.04 in Snow Light Snow
9:08 AM 35.6 °F 32.0 °F 87% 30.26 in 4.0 mi Calm Calm - 0.01 in Rain Light Rain
9:42 AM 35.6 °F 33.8 °F 93% 30.27 in 2.5 mi Calm Calm - 0.02 in Snow Light Snow
9:52 AM 35.6 °F 33.8 °F 93% 30.27 in 4.0 mi Calm Calm - 0.02 in Rain Light Rain
9:56 AM 35.1 °F 33.1 °F 92% 30.34 in 4.0 mi Calm Calm - 0.03 in Rain Light Rain
10:56 AM 35.1 °F 33.1 °F 92% 30.35 in 4.0 mi Calm Calm - 0.03 in Rain Light Rain
11:56 AM 36.0 °F 35.1 °F 97% 30.35 in 3.0 mi Calm Calm - 0.07 in Rain Light Rain
12:56 PM 37.0 °F 36.0 °F 96% 30.35 in 4.0 mi Calm Calm - 0.04 in Rain Light Rain
1:56 PM 37.9 °F 37.0 °F 97% 30.34 in 4.0 mi Calm Calm - 0.03 in Rain Light Rain
2:56 PM 37.9 °F 36.0 °F 93% 30.35 in 7.0 mi Calm Calm - 0.03 in Rain Light Rain
3:56 PM 37.9 °F 36.0 °F 93% 30.37 in 5.0 mi Calm Calm - 0.04 in Rain Light Rain
4:42 PM 37.4 °F 35.6 °F 93% 30.31 in 3.0 mi Calm Calm - 0.03 in Rain Light Rain
4:56 PM 37.9 °F 36.0 °F 93% 30.38 in 6.0 mi Calm Calm - 0.04 in Rain Light Rain
5:41 PM 37.4 °F 35.6 °F 93% 30.32 in 8.0 mi Calm Calm - 0.01 in Rain Light Rain
5:56 PM 36.0 °F 35.1 °F 97% 30.40 in 9.0 mi Calm Calm - 0.01 in Rain Light Rain
6:43 PM 35.6 °F 35.6 °F 100% 30.34 in 1.8 mi Calm Calm - 0.01 in Rain Light Rain
6:56 PM 36.0 °F 34.0 °F 93% 30.41 in 3.0 mi Calm Calm - 0.01 in Rain Light Rain
7:56 PM 36.0 °F 34.0 °F 93% 30.42 in 9.0 mi Calm Calm - 0.00 in   Overcast
8:56 PM 36.0 °F 34.0 °F 93% 30.43 in 7.0 mi Calm Calm - N/A   Overcast
9:56 PM 36.0 °F 35.1 °F 97% 30.45 in 10.0 mi Calm Calm - N/A   Overcast
10:56 PM 35.1 °F 34.0 °F 96% 30.46 in 4.0 mi Calm Calm - N/A   Overcast
11:56 PM 35.1 °F 34.0 °F 96% 30.47 in 2.5 mi Calm Calm - 0.01 in Rain Light Rain